www.pogodaiklimat.ru

Погода и климат >> Архив погоды >> Словакия >> Пьештяни


ПОГОДА в Пьештяни

  • Прогноз погоды в Пьештяни
  • Монитор погоды в Пьештяни

АРХИВ ПОГОДЫ в Пьештяни

Время (UTC), дата Ветер
(напр.,м/с)
 
Видим.   Явления Облачность Т
(С)
Тd
(С)
f
(%)
Тe
(С)
Тes
(С)
Комфортность P
(гПа)
Po
(гПа)
Тmin
(С)
Tmax
(С)
R
(мм)
R24
(мм)
S
(см)
01 10.09 н/о н/о +10.1 +9.0 93 1017.5 997.7
02 10.09 В 2 н/о н/о +9.9 +9.0 94 +8 +8 1018.1 998.3
03 10.09 В 1 н/о н/о +9.7 +8.6 93 +9 +9 1018.4 998.6
04 10.09 С 2 25 км 3/3 1500 м
[Sc Ac lent Ci fib]
+8.8 +8.0 95 +7 +7 1019.0 999.1
05 10.09 СЗ 1 25 км 5/3 1500 м
[Sc Ac lent Ci fib]
+7.8 +7.2 96 +7 +7 1019.7 999.7
06 10.09 С 1 30 км 5/0
[Ac lent Ci fib]
+10.4 +9.8 96 +10 +11 1019.7 999.9 +7.8
07 10.09 30 км 5/0
[Ac lent Ci fib]
+13.6 +10.6 82 1019.7 1000.1
08 10.09 ЮЗ 2 40 км 4/1 500 м
[Cu hum Ac lent Ci fib]
+15.0 +10.8 76 +15 +19 1020.2 1000.7
09 10.09 Ю 3 40 км 4/3 570 м
[Cu med, cong Ac lent Ci fib]
+17.0 +11.9 72 +17 +22 1020.4 1001.0
10 10.09 ЮВ 4 40 км 5/5 750 м
[Cu med, cong Ac lent Ci fib]
+17.2 +11.3 68 +17 +20 1020.5 1001.1
11 10.09 Ю 3 40 км 5/4 900 м
[Cu Sc Ac lent Ci fib]
+17.9 +11.5 66 +18 +23 1020.5 1001.2
12 10.09 ЮВ 3 40 км 5/4 1050 м
[Cu Sc Ac lent Ci fib]
+18.5 +10.6 60 +19 +24 1020.3 1001.0
13 10.09 Ю 4 40 км 4/4 1200 м
[Cu med, cong Ac lent Ci fib]
+19.2 +10.5 57 +20 +23 1020.2 1001.0
14 10.09 ЮВ 4 40 км 4/4 1200 м
[Cu med, cong Ac lent Ci fib]
+19.5 +11.3 59 +21 +23 комфорт 1019.8 1000.6
15 10.09 ЮВ 3 40 км 4/4 1200 м
[Cu med, cong Ac lent Ci fib]
+20.1 +11.1 56 +22 +23 комфорт 1019.8 1000.6
16 10.09 ЮВ 3 40 км 4/3 1350 м
[Cu hum Ac lent Ci fib]
+19.6 +11.6 60 +21 +22 комфорт 1019.7 1000.5
17 10.09 ЮВ 1 40 км 5/1 1500 м
[Cu Sc Ac lent Ci fib]
+18.4 +11.7 65 +20 +20 1020.1 1000.8
18 10.09 В 3 40 км 4/1 1500 м
[Sc Ci fib]
+15.7 +11.9 78 +15 +15 1020.7 1001.2 +20.5
19 10.09 В 3 40 км 3/0
[Ci fib]
+14.8 +11.4 80 +14 +14 1021.0 1001.5
20 10.09 СЗ 2 40 км 3/0
[Ci fib]
+13.4 +11.1 86 +13 +13 1021.4 1001.8
21 10.09 С 3 н/о н/о +13.4 +11.4 88 +12 +12 1021.8 1002.2
22 10.09 С 4 н/о н/о +12.7 +11.3 91 +11 +11 1022.2 1002.5
23 10.09 С 4 н/о н/о +12.3 +11.0 92 +10 +10 1022.5 1002.8
00 11.09 С 3 н/о н/о +11.9 +10.8 93 +10 +10 1022.8 1003.0
01 11.09 С 4 н/о н/о +11.5 +10.6 94 +9 +9 1022.8 1003.0
02 11.09 С 4 н/о н/о +11.2 +10.4 95 +9 +9 1022.9 1003.1
03 11.09 С 4 н/о н/о +10.9 +10.0 94 +8 +8 1022.9 1003.1
04 11.09 С 4 40 км 1/0
[Ci fib]
+10.5 +9.7 95 +8 +8 1023.3 1003.4
05 11.09 С 4 40 км 3/0
[Ci fib]
+10.6 +9.8 95 +8 +8 1023.5 1003.6
06 11.09 С 3 40 км 3/0
[Ci fib]
+12.0 +10.7 92 +10 +11 1023.8 1004.0 +10.4
07 11.09 С 4 40 км 1/0
[Ci sp]
+14.4 +11.7 84 +13 +15 1024.2 1004.6
08 11.09 40 км 1/0
[Ci sp]
+17.0 +12.3 74 1024.2 1004.8
09 11.09 нст 1 40 км 3/1 800 м
[Cu hum Ci sp]
+19.5 +12.0 62 +22 +31 комфорт 1024.2 1004.9
10 11.09 ЮЗ 2 40 км 4/1 1000 м
[Cu hum Ci sp]
+20.8 +12.5 59 +24 +32 комфорт 1024.0 1004.8
11 11.09 40 км 3/1 1140 м
[Cu hum Ci sp]
+22.5 +13.3 56 1023.6 1004.5
12 11.09 нст 1 40 км 1/1 1380 м
[Cu hum Ci sp]
+23.0 +10.5 45 +25 +35 комфорт 1023.1 1004.1
13 11.09 Ю 4 40 км 1/1 1440 м
[Cu med, cong Ci sp]
+23.3 +11.1 46 +26 +30 жарко 1022.9 1003.9
14 11.09 Ю 3 40 км 3/1 1500 м
[Cu med, cong Ci sp]
+23.0 +10.5 45 +25 +29 комфорт 1022.7 1003.7
15 11.09 Ю 2 40 км 3/1 1500 м
[Cu med, cong Ci sp]
+23.1 +9.9 43 +25 +27 комфорт 1022.6 1003.6
16 11.09 40 км 1/1 1500 м
[Sc diur, vesp Ci fib]
+22.8 +9.6 43 1022.8 1003.7
17 11.09 З 1 40 км 3/0
[Ci sp]
+20.9 +11.3 54 +24 +24 комфорт 1023.1 1003.9
18 11.09 нст 1 40 км 3/0
[Ci sp]
+16.0 +11.4 74 +17 +17 1024.0 1004.5 +23.4
19 11.09 40 км 3/0
[Ci sp]
+14.0 +11.2 83 1024.8 1005.1
20 11.09 40 км 1/0
[Ci sp]
+13.9 +11.1 83 1025.2 1005.5
21 11.09 С 2 н/о н/о +11.8 +10.4 91 +11 +11 1025.6 1005.8
22 11.09 С 2 н/о н/о +11.5 +10.4 93 +10 +10 1025.8 1006.0
23 11.09 СВ 3 н/о н/о +11.3 +10.4 94 +9 +9 1026.5 1006.6
00 12.09 С 2 н/о н/о +10.3 +9.4 94 +9 +9 1026.4 1006.5
01 12.09 С 2 н/о н/о +11.1 +10.2 94 +10 +10 1026.6 1006.7
02 12.09 С 3 н/о н/о +11.0 +10.1 94 +9 +9 1026.8 1006.9
03 12.09 С 3 н/о н/о +10.2 +9.6 96 +8 +8 1027.2 1007.2
04 12.09 СВ 2 20 км 3/0
[Ci sp]
+10.2 +9.4 95 +9 +9 1027.5 1007.5
05 12.09 СВ 3 20 км 3/0
[Ac lent Ci fib]
+10.6 +9.8 95 +8 +9 1028.3 1008.3
06 12.09 С 4 30 км 3/0
[Ac lent Ci fib]
+12.0 +11.1 94 +10 +10 1028.5 1008.6 +9.9
07 12.09 С 3 35 км 1/0
[Ac lent Ci fib]
+13.9 +12.0 88 +13 +15 1028.9 1009.2
08 12.09 СВ 3 40 км 1/0
[Ac lent Ci fib]
+16.8 +13.0 78 +17 +21 1029.3 1009.8
09 12.09 нст 1 45 км 1/1 750 м
[Cu hum Ac lent]
+19.4 +12.9 66 +22 +31 комфорт 1029.5 1010.1
10 12.09 50 км 1/1 840 м
[Cu hum Ac lent]
+22.0 +13.9 60 1029.2 1010.0
11 12.09 СЗ 5 60 км 1/1 1200 м
[Cu hum]
+23.2 +11.0 46 +25 +30 комфорт 1028.9 1009.8
12 12.09 З 4 60 км 1/1 1200 м
[Cu hum]
+23.3 +10.0 43 +25 +31 комфорт 1028.7 1009.6
13 12.09 СЗ 5 65 км 1/1 1350 м
[Cu hum]
+23.7 +10.4 43 +25 +29 комфорт 1028.5 1009.4
14 12.09 З 5 65 км 1/1 1350 м
[Cu hum]
+23.6 +10.0 42 +25 +27 комфорт 1028.4 1009.3
15 12.09 СЗ 5 65 км 3/1 1440 м
[Cu hum Ci fib]
+23.3 +10.0 43 +25 +26 комфорт 1028.1 1009.0
16 12.09 З 4 65 км 3/1 1440 м
[Cu hum Ci fib]
+22.6 +10.4 46 +24 +25 комфорт 1028.2 1009.0
17 12.09 З 3 65 км 3/0
[Ac lent Ci fib]
+19.6 +11.9 61 +21 +21 комфорт 1028.6 1009.2
18 12.09 З 3 55 км 3/0
[Ac lent Ci fib]
+17.6 +11.2 66 +18 +18 1029.0 1009.5 +23.9
19 12.09 55 км 3/0
[Ac lent Ci fib]
+15.6 +12.4 81 1029.5 1009.9
20 12.09 50 км 3/0
[Ci fib]
+14.3 +11.6 84 1030.0 1010.3
21 12.09 н/о н/о +13.3 +11.9 91 1030.2 1010.4
22 12.09 н/о н/о +13.0 +11.4 90 1030.5 1010.7
23 12.09 С 2 н/о н/о +12.6 +11.5 93 +12 +12 1030.5 1010.6
00 13.09 СВ 2 н/о н/о +12.0 +11.1 94 +11 +11 1030.4 1010.5
01 13.09 С 2 н/о н/о +11.4 +10.8 96 +10 +10 1030.3 1010.4
02 13.09 н/о н/о +11.1 +10.5 96 1030.6 1010.6
03 13.09 н/о н/о +11.4 +10.8 96 1030.3 1010.4
04 13.09 С 2 30 км 1/0
[Ac lent]
+11.3 +10.5 95 +10 +10 1030.4 1010.5
05 13.09 С 3 30 км 1/0
[Ac lent]
+10.8 +10.2 96 +9 +9 1030.9 1010.9
06 13.09 С 2 40 км 1/0 2000 м
[Ac lent]
+12.5 +11.7 95 +11 +13 1030.6 1010.7 +10.5
07 13.09 С 2 40 км 1/1 1500 м
[Sc Ac lent]
+15.5 +13.2 86 +15 +18 1030.4 1010.8
08 13.09 40 км 1/1 540 м
[Cu Sc Ac lent]
+18.3 +13.6 74 1030.4 1010.9
09 13.09 нст 1 40 км 1/1 800 м
[Cu hum Ac lent]
+20.8 +14.2 66 +25 +34 комфорт 1029.8 1010.5
10 13.09 40 км 1/1 930 м
[Cu med, cong]
+22.5 +14.9 62 1029.2 1010.0
11 13.09 ЮЗ 2 40 км 8/8 1320 м
[Cu Sc]
+22.4 +14.3 60 +26 +28 жарко 1029.0 1009.8
12 13.09 З 3 40 км 8/8 1500 м
[Cu Sc]
+23.2 +14.0 56 +27 +28 душно 1028.4 1009.3
13 13.09 З 5 40 км 8/8 1500 м
[Cu Sc]
+24.4 +13.3 50 +27 +27 жарко 1028.1 1009.1
14 13.09 СЗ 4 40 км 6/5 1500 м
[Cu med, cong Ac lent]
+23.9 +14.3 55 +26 +28 жарко 1027.7 1008.7
15 13.09 СЗ 4 40 км 8/3 1500 м
[Cu Sc Ac lent]
+23.7 +14.4 56 +26 +27 жарко 1027.6 1008.6
16 13.09 СЗ 3 40 км 5/1 1500 м
[Sc diur, vesp Ac lent]
+23.6 +14.3 56 +26 +26 жарко 1027.4 1008.4
17 13.09 СЗ 3 40 км 6/6 1500 м
[Sc]
+21.8 +14.5 63 +25 +25 комфорт 1027.7 1008.5
18 13.09 СЗ 3 40 км 6/6 1500 м
[Sc]
+19.2 +14.5 74 +21 +21 комфорт 1028.2 1008.9 +24.9
19 13.09 СВ 3 40 км 6/0
[Ac lent]
+19.5 +14.5 73 +21 +21 комфорт 1028.5 1009.2
20 13.09 С 2 40 км 1/0
[Ac lent]
+17.6 +14.5 82 +18 +18 1028.9 1009.4
21 13.09 С 1 н/о н/о +17.2 +13.9 81 +18 +18 1029.2 1009.7
22 13.09 СВ 1 н/о н/о +15.8 +13.8 88 +16 +16 1029.4 1009.8
23 13.09 н/о н/о +14.1 +13.0 93 1029.8 1010.1
00 14.09 нст 2 н/о н/о +13.3 +12.4 94 +12 +12 1029.9 1010.1
01 14.09 С 2 н/о н/о +14.1 +12.5 90 +14 +14 1029.9 1010.2
02 14.09 С 3 н/о н/о +15.1 +12.6 85 +14 +14 1029.9 1010.2
03 14.09 СЗ 3 н/о н/о +14.2 +12.4 89 +13 +13 1030.1 1010.4
04 14.09 С 5 40 км 6/0
[Ac trans]
+14.8 +12.1 84 +13 +13 1030.2 1010.5
05 14.09 С 5 40 км 4/0
[Ac trans]
+14.4 +11.6 83 +13 +13 1030.7 1011.0
06 14.09 С 5 40 км 1/0
[Ac trans]
+15.4 +12.4 82 +14 +15 1031.1 1011.4 +12.8
07 14.09 С 6 40 км 1/1 720 м
[Cu med, cong]
+17.1 +11.8 71 +16 +17 1031.5 1011.9
08 14.09 С 6 40 км 3/3 800 м
[Cu med, cong]
+18.4 +12.0 66 +18 +20 1031.6 1012.1
09 14.09 СВ 5 40 км 4/4 900 м
[Cu med, cong]
+18.9 +11.2 61 +19 +22 1031.6 1012.1
10 14.09 С 4 40 км 4/1 1200 м
[Cu hum Ci fib]
+19.8 +11.1 57 +21 +27 комфорт 1031.1 1011.7
11 14.09 СВ 4 40 км 3/0
[Ci fib]
+20.0 +9.3 50 +21 +28 комфорт 1030.6 1011.2
12 14.09 С 4 40 км 1/0
[Ci fib]
+20.8 +8.8 46 +22 +29 комфорт 1030.1 1010.8
13 14.09 СЗ 5 40 км ясно +21.0 +5.8 37 +22 +26 комфорт 1029.8 1010.5
14 14.09 СЗ 6 40 км ясно +20.9 +6.5 39 +22 +24 комфорт 1029.5 1010.2
15 14.09 СЗ 6 40 км 3/0
[Ci fib]
+20.4 +6.7 41 +21 +22 комфорт 1028.9 1009.6
16 14.09 СЗ 6 40 км 3/0
[Ci fib]
+19.0 +7.2 46 +19 +19 1028.7 1009.3
17 14.09 СЗ 4 40 км 3/0
[Ci fib]
+16.7 +7.4 54 +16 +16 1028.9 1009.3
18 14.09 С 5 40 км 3/0
[Ac trans Ci fib]
+15.4 +7.2 58 +14 +14 1029.5 1009.8 +21.4
19 14.09 С 4 40 км 3/0
[Ac trans Ci fib]
+13.5 +7.5 67 +12 +12 1029.9 1010.1
20 14.09 40 км 3/0
[Ci fib]
+12.9 +7.2 68 1030.2 1010.3
21 14.09 СЗ 3 н/о н/о +10.9 +7.4 79 +9 +9 1030.4 1010.4
22 14.09 СВ 4 н/о н/о +10.7 +7.4 80 +8 +8 1030.6 1010.6
23 14.09 С 3 н/о н/о +8.7 +6.7 87 +6 +6 1030.4 1010.2
00 15.09 СВ 2 н/о н/о +8.8 +6.6 86 +7 +7 1029.9 1009.8
01 15.09 н/о н/о +7.2 +6.0 92 1029.6 1009.4
02 15.09 СВ 2 н/о н/о +7.5 +6.0 90 +5 +5 1029.3 1009.1
03 15.09 С 3 н/о н/о +7.4 +6.2 92 +4 +4 1029.2 1009.0
04 15.09 С 2 25 км 1/0
[Ci fib]
+7.1 +6.0 93 +5 +5 1029.2 1008.9
05 15.09 С 2 25 км 1/0
[Ci fib]
+6.6 +5.7 94 +4 +4 1029.2 1008.9
06 15.09 С 3 30 км 3/0
[Ci fib]
+8.3 +7.1 92 +6 +6 1029.3 1009.1 +6.4
07 15.09 С 2 30 км 3/0
[Ci fib]
+11.1 +8.2 82 +10 +13 1028.8 1008.8
08 15.09 40 км 3/0
[Ci fib]
+14.3 +8.5 68 1028.0 1008.3
09 15.09 нст 1 40 км 3/0
[Ci fib]
+16.6 +8.8 60 +18 +26 1027.4 1007.9
10 15.09 Ю 2 40 км 4/0
[Ci fib]
+17.7 +8.3 54 +18 +27 1026.9 1007.4
11 15.09 Ю 2 40 км 4/0
[Ci fib]
+19.9 +9.2 50 +22 +31 комфорт 1025.9 1006.6
12 15.09 нст 2 40 км 4/0
[Ac lent Ci fib]
+20.1 +8.8 48 +22 +30 комфорт 1025.2 1005.9
13 15.09 Ю 2 40 км 4/0
[Ac lent Ci fib]
+20.8 +9.7 49 +23 +29 комфорт 1024.2 1005.0
14 15.09 Ю 2 40 км 4/0
[Ci fib]
+21.4 +10.3 49 +23 +27 комфорт 1023.4 1004.3
15 15.09 ЮВ 3 40 км 3/0
[Ci fib]
+21.4 +10.3 49 +23 +25 комфорт 1022.4 1003.3
16 15.09 Ю 3 40 км 3/0
[Ci fib]
+21.2 +10.4 50 +23 +23 комфорт 1021.8 1002.7
17 15.09 В 1 40 км 4/0
[Ci fib]
+19.1 +11.9 63 +21 +21 комфорт 1021.6 1002.3
18 15.09 В 3 20 км 4/0
[Ci fib]
+15.9 +11.7 76 +15 +15 1021.6 1002.1 +22.1
19 15.09 С 1 40 км 3/0
[Ci fib]
+13.6 +11.0 84 +14 +14 1021.6 1002.0
20 15.09 С 2 40 км 4/0
[Ci fib]
+13.2 +10.7 85 +12 +12 1021.6 1002.0
21 15.09 С 3 н/о н/о +12.7 +10.9 89 +11 +11 1021.3 1001.6
22 15.09 С 2 н/о н/о +11.7 +10.4 92 +10 +10 1021.2 1001.5
23 15.09 С 3 н/о н/о +11.4 +10.5 94 +9 +9 1021.3 1001.5
00 16.09 СВ 1 н/о н/о +10.9 +10.1 95 +10 +10 1020.6 1000.8
01 16.09 С 2 н/о н/о +11.0 +10.4 96 +10 +10 1020.4 1000.6
02 16.09 С 3 н/о н/о +10.5 +9.9 96 +8 +8 1020.1 1000.3
03 16.09 С 2 н/о н/о +10.1 +9.5 96 +8 +8 1019.9 1000.1
04 16.09 С 3 15 км 4/0
[Ci fib]
+10.0 +9.5 97 +8 +8 1019.8 1000.0
05 16.09 С 1 15 км 4/0
[Ac lent Ci fib]
+9.9 +9.4 97 +9 +9 1019.6 999.8
06 16.09 С 3 20 км 3/0 2000 м
[Ac lent Ci fib]
+11.5 +11.0 97 +10 +10 1019.8 1000.1 +8.7
07 16.09 С 2 30 км 3/0
[Ac lent Ci fib]
+14.4 +12.4 88 +14 +17 1019.6 1000.1
08 16.09 35 км 3/0
[Ac lent Ci fib]
+17.8 +13.7 77 1019.2 999.9
09 16.09 нст 1 40 км 3/0 2000 м
[Ac lent Ci fib]
+20.5 +14.2 67 +24 +32 комфорт 1018.5 999.4
10 16.09 50 км 3/1 900 м
[Cu hum Ci sp]
+22.5 +14.9 62 1018.0 999.1
11 16.09 50 км 4/0
[Ac lent Ci sp]
+24.4 +15.1 56 1017.3 998.5
12 16.09 З 5 50 км 6/0
[Ac lent Ci sp]
+25.1 +12.0 44 +27 +31 жарко 1016.6 997.8
13 16.09 З 6 50 км 8/0
[Ci sp]
+24.4 +9.2 38 +25 +28 комфорт 1016.2 997.4
14 16.09 З 4 50 км 8/0
[Ci sp]
+24.4 +10.7 42 +26 +28 жарко 1015.9 997.1
15 16.09 СЗ 3 50 км 9/0
[Ci sp]
+23.0 +10.1 44 +25 +26 комфорт 1015.7 996.8
16 16.09 СВ 1 50 км 9/0
[Ac lent Ci sp]
+22.1 +10.6 48 +24 +24 комфорт 1015.4 996.4
17 16.09 В 1 50 км 8/0
[Ac lent Ci sp]
+19.9 +12.7 63 +23 +23 комфорт 1015.3 996.2
18 16.09 В 1 40 км 9/0
[Ac As Ci sp]
+17.9 +12.4 70 +19 +19 1015.2 996.0 +25.4
19 16.09 С 1 40 км 8/0
[Ac As Ci sp]
+17.0 +12.1 73 +18 +18 1015.5 996.2
20 16.09 С 1 40 км 9/0
[Ac As]
+16.5 +12.5 77 +17 +17 1015.5 996.2
21 16.09 ЮВ 1 н/о н/о +16.1 +12.6 80 +17 +17 1015.7 996.4
22 16.09 штиль 0 н/о н/о +16.0 +12.6 80 +16 +16 1015.6 996.3
23 16.09 С 1 н/о н/о +15.5 +12.6 83 +16 +16 1015.1 995.7
00 17.09 С 2 н/о н/о +15.5 +12.6 83 +15 +15 1014.8 995.4
01 17.09 н/о н/о +15.8 +12.7 82 1014.9 995.6
02 17.09 н/о н/о +15.0 +13.5 91 1014.8 995.4

 

Местоположение метеостанции Пьештяни (Словакия): широта 48.62 долгота 17.83 высота над уровнем моря 164 м.

В архиве по умолчанию представлена погода в Пьештяни за последнюю неделю. Архивные данные за месяц целиком и за предыдущие месяцы, начиная с января 2011 года, Вы можете получить, выбрав интересующий диапазон дат из раскрывающегося списка и нажав кнопку "Ввод!".


*Определитесь, кто Вы:
робот инопланетянин человек

Внимание! Время в таблицах - всемирное. Для получения местного времени необходимо прибавить поправку, которая равна 1 ч.

Смотрите также архив погоды в соседних городах и на ближайших метеорологических станциях:

Погода в Ясловске Богунице (Словакия) (20 км)
Погода в Нитре (Словакия) (44 км)
Погода в Малацки (Словакия) (56 км)
Погода в Прьевидзе (Словакия) (59 км)
Погода в Моховце (Словакия) (59 км)
Погода в Малом Яровнику (Словакия) (65 км)
Погода в Братиславе (Словакия) (66 км)
Погода в Братислава-Колибе (Словакия) (72 км)
Погода в Жьяр-над-Гроном (Словакия) (75 км)
Погода в Холесове (Чехия) (80 км)

Пояснения к столбцам:

Ветер - указаны скорость ветра в м/с - средняя за 10 мин, порывы в срок и между сроками (в фигурных скобках) и направление, откуда дует ветер: С - северный, СВ - северо-восточный, В - восточный, ЮВ - юго-восточный, Ю - южный, ЮЗ - юго-западный, З - западный, СЗ - северо-западный.
Видимость - горизонтальная дальность видимости в метрах или километрах. При видимости от 1 до 10 км при отсутствии осадков обычно наблюдается дымка, при ухудшении видимости до 1 км и менее - туман. В сухую погоду видимость может ухудшаться дымом, пылью или мглою.
Явления - указаны атмосферные явления, наблюдавшиеся в срок или в последний час перед сроком; фигурными скобками обозначены явления, наблюдавшиеся между сроками (за 1-3 часа до срока); квадратными скобками обозначены град или гололедные отложения с указанием их диаметра в мм.
Облачность - указаны через наклонную черту общая и нижняя облачность в баллах и высота нижней границы облаков в метрах; квадратными скобками обозначены формы облаков: Ci - перистые, Cs - перисто-слоистые, Cc - перисто-кучевые, Ac - высококучевые, As - высокослоистые, Sc - слоисто-кучевые, Ns - слоисто-дождевые, Cu - кучевые, Cb - кучево-дождевые. Подробнее классификацию облаков см. в Атласе облаков (PDF).
T - Температура воздуха - температура, измеренная на высоте 2 м над землей.
Td - Температура точки росы - температура, при понижении до которой содержащийся в воздухе водяной пар достигнет насыщения.
f - Относительная влажность воздуха - влажноcть воздуха, измеренная на высоте 2 м над землей.
Te - Эффективная температура - температура, которую ощущает одетый по сезону человек в тени. Характеристика душности погоды. При расчете учитывается влияние влажности воздуха и скорости ветра на теплоощущения человека.
Tes - Эффективная температура на солнце - температура, которую ощущает человек, с поправкой на солнечный нагрев. Характеристика знойности погоды. Зависит от высоты солнца над горизонтом, облачности и скорости ветра. Ночью, в пасмурную погоду, а также при ветре 12 м/с и более поправка равна нулю.
P - Атмосферное давление - приведенное к уровню моря атмосферное давление.
Po - Атмосферное давление - измеренное на уровне метеостанции атмосферное давление.
Tmin - Минимальная температура - минимум температуры воздуха на высоте 2 м над землей.
Tmax - Максимальная температура - максимум температуры воздуха на высоте 2 м над землей.
R - Количество осадков - Количество выпавших осадков за период времени, мм. При наведении курсора мыши на число - период времени, за который выпало указанное количество осадков.
R24 - Количество осадков - Количество выпавших осадков за 24 часа, мм.
S - Снежный покров - Высота снежного покрова, см. При наведении курсора мыши на число - состояние снежного покрова и степень покрытия местности в баллах.